Theta_e
315 314 314 318 321 323 324 321 320 319 321 322 317 321 319 317 320 317 317 317 317 318 318 317 316 317 318 320 322 325 324 326 327 320 321 322 323 327 328 332 334 336 338 337 337 336 337 337 337 337 337 337 336 335 332 330 329 329 329 329 330 332 331 327 323 322 322 322 322 322 320 319 321 326 328 328 330 331 331 329 326 322 313 310 310 308 308 309 309 310 311 311 311 311 311 312 315
314 313 315 318 321 324 322 320 326 326 326 320 316 320 318 318 319 317 319 318 318 319 319 318 318 320 320 321 322 324 328 329 329 326 327 323 322 325 325 331 333 335 337 336 337 336 337 337 337 337 337 337 336 335 332 330 329 329 329 329 330 331 331 327 323 322 322 322 322 321 319 316 318 325 328 329 328 327 328 327 325 319 311 310 310 309 308 308 309 309 309 309 309 309 309 309 310
313 314 316 320 323 321 324 323 325 328 327 321 317 321 318 317 319 320 319 316 319 318 318 318 318 320 320 323 324 323 327 329 330 329 326 321 322 322 324 331 334 335 336 336 337 337 337 337 338 337 337 337 336 335 333 331 331 331 331 330 330 331 330 327 323 322 322 322 322 320 317 315 318 326 330 329 327 324 324 324 322 317 311 311 310 309 308 308 309 309 309 309 309 308 308 308 309
313 318 320 322 323 322 335 333 329 330 324 321 320 321 322 320 321 318 316 316 318 317 316 318 319 319 320 324 323 323 326 327 328 326 321 321 322 320 324 331 334 335 335 336 336 337 338 337 338 337 337 337 336 336 334 333 332 332 332 330 330 329 328 326 323 322 322 322 320 318 316 316 321 327 328 326 324 321 321 320 319 316 313 312 312 310 307 307 308 308 309 307 307 306 306 307 308
317 322 322 322 324 322 333 329 330 334 323 323 321 321 328 325 321 315 314 316 316 316 316 318 321 319 321 322 321 322 325 325 325 324 322 320 321 322 326 329 333 335 334 336 335 337 338 336 337 337 337 336 336 336 335 333 333 332 331 330 329 328 326 325 323 322 322 320 318 318 317 320 323 326 327 325 323 322 321 320 320 319 316 314 313 312 308 306 307 307 307 306 305 304 305 305 306
320 323 321 320 322 317 325 323 323 329 321 324 322 321 326 320 317 314 313 315 315 316 317 317 319 319 322 323 322 323 323 323 324 324 323 320 321 325 327 328 332 335 334 335 335 337 337 335 336 337 336 336 336 335 335 334 332 331 330 329 328 327 325 323 322 321 319 318 318 319 320 323 325 326 326 326 326 326 325 324 323 322 319 317 316 314 311 307 305 306 305 304 304 304 304 304 304
321 322 321 322 321 317 326 326 320 323 317 318 322 322 319 314 314 314 314 315 316 316 317 318 317 319 322 322 323 323 321 321 321 323 322 320 321 326 328 327 331 333 335 336 335 337 337 335 334 336 336 336 336 335 335 335 333 332 331 330 329 327 326 324 322 320 318 318 321 323 324 325 326 326 327 328 328 328 328 327 326 325 322 320 318 316 314 311 307 305 304 304 304 304 304 305 305
322 321 320 326 328 324 330 325 320 324 317 312 317 319 315 314 313 313 314 314 315 316 317 318 316 319 320 318 321 322 320 320 321 322 321 319 321 326 327 327 330 332 334 335 335 336 336 335 334 334 335 335 336 335 335 334 333 333 331 331 330 328 326 324 322 320 319 320 324 326 326 327 327 326 327 327 328 328 329 328 327 326 325 322 321 319 316 314 311 306 304 304 304 304 305 306 306
321 321 320 326 328 327 329 321 318 320 317 314 314 316 315 314 313 313 314 313 314 315 317 317 316 319 319 318 321 321 321 321 320 321 320 321 322 325 325 326 331 331 333 335 335 335 335 335 334 333 334 333 334 335 335 334 333 333 333 331 331 329 326 325 322 321 321 322 325 327 328 329 329 327 327 326 326 327 327 327 327 326 326 324 322 321 318 315 313 309 305 304 304 304 305 306 306
321 321 318 325 326 322 321 318 321 319 317 316 313 315 315 313 313 313 314 314 315 315 316 316 315 318 319 320 321 320 321 320 320 321 321 324 326 327 325 326 331 332 333 334 334 333 334 334 334 333 333 332 333 335 334 334 333 333 333 332 331 329 327 326 323 322 321 322 326 327 328 329 329 328 327 326 325 326 325 325 326 326 326 325 323 321 318 315 314 312 307 305 304 304 304 305 306
322 320 320 332 331 321 320 319 321 320 317 316 314 315 315 314 314 313 314 315 315 316 316 316 317 319 318 319 319 319 319 319 321 322 322 326 329 331 329 327 329 331 332 332 334 333 332 333 333 333 334 333 332 334 334 334 334 333 333 333 332 331 329 327 324 323 322 323 325 327 328 328 327 326 326 326 325 324 323 323 324 325 325 324 322 319 317 315 314 313 309 306 305 304 304 304 305
320 321 332 342 331 324 324 320 318 319 318 317 316 315 315 314 314 314 315 315 315 315 315 316 318 318 317 317 318 318 318 320 323 324 324 327 329 330 331 330 329 329 328 328 331 332 331 331 331 332 334 335 332 332 334 334 333 333 333 333 333 332 330 328 325 324 324 325 326 327 327 327 326 325 326 325 324 323 323 322 321 323 323 322 320 319 318 315 314 313 310 307 305 304 304 303 304
319 324 344 334 321 326 324 319 320 321 318 317 316 315 315 314 315 316 314 315 314 315 315 316 317 317 317 316 317 317 318 320 322 324 324 326 329 330 330 332 332 331 330 328 328 330 330 329 329 330 331 334 333 332 332 333 333 332 332 333 334 333 331 330 328 326 326 327 327 327 326 326 325 325 325 325 324 325 325 323 320 321 322 321 320 320 318 316 315 314 311 309 307 305 304 303 303
319 322 342 329 315 322 320 319 320 319 319 319 316 314 316 315 315 316 315 316 314 315 316 315 316 317 317 315 316 317 317 319 320 322 322 324 329 330 330 332 332 332 333 332 330 330 329 327 327 328 329 332 332 331 332 332 331 332 332 332 333 333 332 331 329 328 328 328 327 326 325 325 325 325 325 325 325 326 327 325 321 321 321 320 321 320 319 317 316 316 315 314 312 310 308 306 305
318 316 332 329 318 319 319 321 321 320 321 319 316 315 316 315 316 315 315 317 315 315 315 316 317 316 317 316 317 315 315 317 317 319 320 320 325 328 330 329 330 331 332 332 329 330 327 327 333 330 326 330 332 332 331 331 331 331 332 331 332 333 333 332 331 330 328 327 326 325 324 324 324 325 324 324 325 327 328 324 321 321 321 321 321 321 320 318 318 318 318 318 318 317 315 314 313
317 316 332 330 318 319 318 318 321 321 320 315 315 315 316 315 315 315 315 316 315 315 315 316 316 316 316 316 317 315 315 316 316 317 317 317 320 323 326 326 328 328 328 329 327 328 323 327 339 333 326 330 332 331 330 330 331 331 332 331 332 333 332 332 331 330 329 327 326 325 324 324 324 324 324 324 326 328 327 324 322 322 321 322 322 322 320 318 318 318 318 320 321 322 321 321 320
316 323 338 330 319 320 319 319 320 322 323 315 314 315 316 316 315 316 316 316 315 314 315 315 315 315 316 315 316 315 315 315 315 315 315 315 316 318 320 321 323 323 324 325 323 324 320 324 332 329 331 334 329 329 329 329 330 330 332 331 331 332 332 333 332 331 330 329 327 326 326 325 324 324 324 324 326 329 328 326 324 323 322 322 323 322 321 319 320 321 321 322 323 324 323 323 322
321 333 336 323 320 321 320 322 317 319 322 315 314 316 316 317 315 315 315 315 315 314 314 315 315 315 316 315 315 316 315 314 314 314 315 314 315 315 316 316 317 318 318 319 318 319 318 319 321 321 329 331 326 327 328 328 329 329 330 330 331 331 332 332 332 332 331 330 329 328 327 326 325 324 324 324 326 328 328 326 324 324 322 322 324 323 322 321 323 323 323 324 324 324 324 323 322
322 334 334 326 327 321 316 318 313 314 318 314 314 315 315 317 315 315 316 315 314 315 314 314 315 315 315 315 315 315 315 314 314 313 314 314 314 314 314 314 314 315 315 315 315 315 315 316 316 316 321 323 323 326 326 327 328 329 329 329 330 331 332 333 332 332 331 331 330 329 329 328 326 325 325 325 326 328 328 326 325 324 322 323 325 324 323 323 325 324 324 325 324 324 324 323 322
316 328 334 328 324 318 314 315 314 315 316 314 314 314 315 316 315 315 316 314 313 314 315 314 314 315 315 315 315 315 314 314 314 313 313 313 314 314 314 314 314 314 314 314 314 314 315 314 315 315 316 318 321 322 324 326 326 327 328 328 329 330 331 332 332 332 331 330 330 330 330 329 328 327 327 327 327 328 327 327 326 324 323 325 326 326 324 324 326 325 324 324 324 324 322 321 321
314 323 329 321 315 316 316 315 315 316 315 314 315 315 315 315 316 315 314 316 315 314 316 316 316 316 316 316 315 315 314 314 313 313 313 313 313 314 314 314 314 314 314 314 314 314 314 314 314 314 315 316 318 319 320 323 324 324 326 328 329 330 331 331 331 331 330 331 331 331 332 330 329 329 330 329 329 329 328 327 326 325 325 327 327 326 325 325 326 326 326 324 324 324 322 321 322
316 316 318 315 313 317 317 315 316 315 314 315 314 315 316 315 315 315 315 318 319 316 316 317 317 317 316 316 316 315 314 314 314 313 313 314 314 314 314 314 314 314 314 314 314 314 314 314 314 314 314 314 316 316 317 320 320 320 325 326 326 328 329 330 330 330 329 330 332 331 331 331 329 329 330 331 331 330 329 328 327 327 327 328 327 327 326 325 326 326 326 325 324 324 323 321 321
320 316 313 314 314 316 317 315 315 315 315 315 314 316 316 315 316 315 315 317 318 316 316 317 316 316 316 316 316 315 315 314 314 314 314 314 314 314 314 314 314 314 314 314 314 314 314 314 314 314 314 314 315 315 315 316 317 320 323 323 324 326 328 329 329 328 329 329 330 330 330 330 329 329 331 331 332 330 330 330 328 328 328 327 328 327 326 325 326 326 326 326 325 324 323 321 320
322 319 313 315 315 316 317 316 316 316 316 316 315 316 315 316 316 315 314 316 317 316 317 316 316 316 315 316 315 315 315 315 314 314 314 314 314 314 314 314 314 314 314 314 314 314 313 314 314 314 314 314 314 314 315 314 316 320 320 320 322 322 324 326 328 329 328 328 328 329 329 329 330 330 330 331 331 330 330 330 329 328 327 327 327 327 327 325 326 327 327 326 325 324 323 321 320
320 319 314 315 316 316 317 316 316 316 316 316 316 315 315 316 315 313 314 316 316 316 316 316 316 316 316 315 315 315 314 314 314 313 313 313 313 313 314 313 313 314 313 313 313 313 313 313 313 313 313 314 314 314 314 314 315 317 318 321 323 323 325 324 327 330 329 329 329 329 329 329 330 331 331 331 331 330 330 330 329 328 328 328 327 327 328 327 327 327 327 326 325 324 323 321 319
316 317 315 315 315 316 316 316 316 316 316 316 316 315 315 314 314 315 315 316 316 316 316 316 316 316 316 315 315 314 314 314 314 314 313 313 313 313 313 313 313 313 313 313 313 313 313 313 313 313 313 314 314 314 314 314 315 316 317 321 321 323 325 322 324 328 327 328 328 327 328 328 330 331 331 331 331 330 330 329 329 328 328 328 327 328 327 325 326 326 326 326 325 324 322 320 319
315 315 315 315 315 315 316 316 316 315 315 315 316 316 315 313 314 316 316 316 315 315 315 315 316 316 316 316 315 314 314 314 314 314 313 313 313 314 313 313 313 313 313 313 313 313 313 313 313 312 313 313 313 314 314 314 314 316 317 319 322 324 328 326 327 330 326 327 329 326 326 328 329 330 331 330 330 330 329 329 329 328 328 328 327 327 326 325 324 325 325 325 324 323 321 320 319
315 315 316 315 314 315 314 314 314 315 315 314 315 314 313 313 314 316 315 315 316 315 315 315 315 316 315 315 315 314 314 314 313 313 313 313 314 314 314 314 313 313 313 313 313 313 313 313 313 312 312 312 313 313 313 314 313 316 317 318 324 327 330 330 329 330 325 326 330 327 326 326 325 328 329 330 330 330 329 328 328 327 327 326 327 326 326 326 326 325 325 325 323 322 320 319 319
315 315 318 319 319 319 314 312 313 314 315 314 314 315 316 315 314 316 315 315 315 314 314 315 315 315 315 315 314 314 314 313 313 313 313 313 313 313 313 313 312 313 313 313 313 314 314 313 313 312 312 312 312 312 312 313 312 315 318 320 324 325 326 327 326 327 325 324 327 327 327 326 324 326 326 327 328 327 327 326 326 326 324 323 325 327 327 327 326 326 325 324 322 321 321 320 319
317 314 316 323 326 323 313 311 313 313 314 314 313 318 326 324 315 314 315 314 314 314 314 314 314 315 314 314 314 314 314 313 314 314 313 313 312 313 312 312 312 313 313 313 313 313 314 314 313 313 313 312 312 312 312 313 314 315 317 320 323 323 325 326 327 330 329 325 325 326 327 327 327 326 326 326 326 326 328 328 325 323 321 322 326 328 328 327 326 326 325 323 322 320 320 319 319
320 313 320 326 320 325 319 310 313 314 314 313 314 319 326 327 317 313 314 313 314 314 314 314 314 314 314 314 313 314 314 313 314 313 313 313 313 313 313 312 312 312 313 313 313 313 313 313 313 312 312 312 312 313 312 315 317 317 318 321 321 321 323 326 326 326 326 323 323 326 328 327 327 326 326 327 328 329 329 326 322 321 324 326 327 327 327 327 325 324 323 321 319 319 319 319 319
327 316 327 329 317 330 329 310 311 316 314 311 315 320 322 321 315 313 313 312 313 313 314 314 314 313 313 313 313 314 314 313 313 313 313 312 313 313 313 313 312 312 313 313 313 313 313 313 313 312 312 312 312 312 313 318 320 319 323 328 326 324 326 329 328 324 322 321 323 327 327 326 326 326 326 327 327 327 326 324 322 324 327 327 327 327 326 326 324 323 321 319 319 319 320 319 318
332 320 325 330 320 328 327 313 310 313 313 312 314 319 323 320 313 312 313 312 312 312 313 313 313 314 313 313 314 314 314 313 313 313 313 312 313 313 313 313 313 313 312 313 313 313 313 313 312 312 312 312 312 315 317 321 323 321 324 328 328 327 328 330 328 324 321 320 323 326 327 326 325 323 323 322 321 321 322 324 324 326 326 326 325 325 324 323 321 320 319 319 320 320 318 318 317
329 320 321 328 323 322 324 323 314 309 313 315 314 315 320 319 312 312 313 312 312 311 313 314 313 313 313 313 313 313 314 313 314 314 314 313 313 313 313 313 313 312 312 312 312 312 313 312 312 312 312 313 315 318 321 322 322 320 321 324 324 324 326 326 324 322 320 320 323 325 325 325 323 322 321 319 319 322 323 323 324 325 324 324 323 322 321 321 320 319 318 318 319 317 315 315 315
329 324 323 324 322 319 323 327 317 311 315 316 315 316 316 316 312 311 312 312 311 312 313 314 313 313 313 313 313 314 314 314 315 315 313 313 313 313 313 313 313 312 312 312 312 312 312 311 312 311 311 313 316 319 321 322 323 323 323 324 323 321 323 324 323 322 320 320 322 323 323 323 321 321 320 317 320 325 325 323 324 323 322 322 321 321 321 320 319 318 316 316 316 314 313 314 314
331 331 331 329 326 323 324 327 318 312 315 317 317 317 316 316 314 312 312 311 311 312 313 312 313 313 313 313 313 313 314 315 316 315 313 312 312 312 313 313 313 313 312 312 312 312 311 311 312 312 312 313 314 317 319 320 323 325 323 323 323 324 323 321 320 319 320 320 320 322 322 321 318 318 318 318 321 323 323 323 323 322 321 321 321 322 321 318 315 312 312 312 312 312 313 314 313
326 329 330 328 326 325 326 326 318 310 315 321 318 316 316 316 315 313 310 310 309 310 310 310 312 313 313 314 314 314 314 316 316 314 313 312 312 312 312 313 313 312 312 311 312 312 312 312 311 312 312 312 314 319 321 319 319 320 323 324 324 323 321 320 318 317 318 320 320 321 320 318 317 318 319 320 321 322 322 322 322 322 322 322 321 318 315 311 308 307 307 308 309 309 311 312 311
323 324 323 323 324 324 323 322 317 311 314 323 320 317 316 315 314 312 310 310 309 309 309 310 312 313 313 314 314 315 315 315 315 314 314 312 312 312 311 312 312 312 312 312 312 312 312 312 312 312 311 311 314 320 325 323 321 322 325 324 323 322 322 321 318 315 317 320 320 320 318 318 319 320 320 321 321 322 322 322 322 322 321 319 315 311 308 306 304 304 303 304 306 305 306 308 308
320 323 320 322 324 322 322 320 317 313 314 323 324 318 317 316 315 312 309 309 311 312 312 313 314 313 313 314 314 315 315 314 315 314 314 313 312 312 311 311 312 312 312 311 312 311 311 312 312 312 312 312 315 318 323 324 324 324 322 321 322 323 322 319 315 315 319 320 318 318 318 319 321 320 321 321 321 322 322 321 321 319 316 312 308 305 305 304 302 301 300 300 302 303 302 304 306
319 321 320 323 323 321 324 323 317 315 315 319 322 317 315 315 315 314 312 311 312 313 314 314 314 314 314 315 315 315 315 315 315 314 314 314 313 312 311 311 311 312 312 312 312 312 312 312 311 312 312 313 316 316 317 319 321 321 320 319 321 321 318 316 315 316 319 318 316 318 320 320 320 321 321 321 321 321 320 319 316 312 308 305 304 304 302 301 300 299 298 298 299 300 301 302 305
322 321 320 323 323 321 323 323 320 321 321 317 318 320 322 321 319 319 315 311 312 312 313 314 315 316 316 315 314 314 315 314 314 314 314 314 314 313 313 311 311 311 312 312 312 312 312 311 311 312 311 313 315 314 314 318 321 321 320 320 320 319 318 316 316 318 318 316 315 318 319 319 320 320 320 320 320 318 316 314 310 305 304 303 302 301 300 299 299 298 297 297 297 298 299 300 303
324 324 321 320 321 321 320 321 321 326 329 320 317 324 333 332 327 325 322 319 319 315 311 312 316 317 316 315 316 315 314 314 314 313 313 314 314 314 313 311 310 311 312 312 312 311 311 311 311 312 312 312 314 313 313 317 321 320 320 321 321 320 318 317 317 318 317 314 314 317 318 319 319 319 319 318 316 313 310 307 304 302 302 301 299 299 299 298 297 297 297 296 297 297 297 298 300
323 325 323 319 318 319 320 321 321 327 329 319 315 324 331 329 325 326 327 327 327 320 313 313 316 318 316 317 318 318 316 315 314 313 313 313 313 313 313 312 311 311 311 311 311 311 310 310 311 312 313 311 313 315 315 316 319 320 321 321 320 319 317 316 317 317 315 313 314 315 316 318 317 316 315 313 309 307 305 303 301 300 300 299 298 298 297 297 297 297 297 296 296 296 295 296 297
327 323 320 319 317 319 321 321 321 325 326 320 319 324 325 323 323 323 322 323 324 321 318 315 314 316 318 318 319 319 318 317 315 314 314 314 313 313 314 313 313 311 311 310 310 311 310 310 311 313 313 311 314 318 317 317 318 318 318 317 317 317 316 316 315 314 313 312 312 314 316 316 314 312 309 306 304 302 301 300 299 299 298 298 297 297 297 297 297 297 297 296 296 296 295 295 295
325 318 317 319 319 323 326 325 324 322 323 324 323 321 322 326 326 324 320 321 323 323 322 319 314 316 318 318 320 319 319 318 316 315 314 314 314 314 313 313 312 310 310 310 310 311 310 310 312 313 313 312 313 316 317 317 316 315 315 314 315 316 316 316 314 312 312 310 311 314 315 312 308 306 304 302 301 300 299 299 298 298 298 298 297 297 297 297 297 297 297 296 296 295 295 294 294
317 313 318 321 322 325 327 328 327 325 324 325 325 322 322 326 328 326 321 323 326 323 321 318 314 316 318 319 320 319 319 318 317 316 314 313 313 313 312 311 311 310 309 309 310 310 310 311 313 313 312 313 313 314 316 316 314 314 315 314 314 316 315 315 314 312 310 310 312 313 310 306 304 302 301 299 298 298 298 298 297 297 297 297 297 297 297 298 297 297 296 296 296 295 295 295 295
312 318 327 327 327 327 327 326 324 325 325 324 325 324 322 325 328 328 324 325 328 324 323 323 318 317 319 320 320 319 318 317 317 316 314 313 311 311 311 310 310 309 309 309 309 310 310 311 312 313 312 313 313 313 314 313 312 315 316 314 313 314 314 313 313 312 310 311 312 310 305 302 301 299 298 298 297 297 297 297 297 297 297 297 297 297 298 298 297 297 297 296 296 296 296 296 295
315 329 331 328 329 327 326 327 324 326 327 322 321 320 320 324 328 328 324 323 326 323 324 330 325 319 319 319 318 317 317 316 316 316 314 313 312 311 310 310 310 309 308 309 309 309 310 311 312 313 312 312 311 310 310 311 313 315 316 314 314 313 312 311 312 311 312 312 309 305 302 301 299 298 297 297 297 297 297 297 297 297 297 297 297 298 298 298 297 297 297 297 297 296 296 296 295
320 329 327 325 327 325 326 327 323 325 324 317 316 318 319 321 323 323 321 321 322 318 316 320 319 317 319 318 317 317 316 315 315 315 315 314 313 312 311 310 310 309 309 309 309 309 310 311 311 312 312 311 311 310 310 312 313 315 314 313 313 312 310 310 311 312 312 310 305 302 301 300 298 297 297 297 297 297 297 297 297 297 297 297 298 298 298 298 297 297 297 297 297 296 296 295 295
320 324 325 326 326 327 331 328 322 323 322 315 313 318 321 322 322 321 320 318 318 316 313 315 314 315 317 317 317 317 316 316 315 315 315 314 314 313 312 311 310 310 309 309 309 309 309 310 311 311 311 311 311 311 312 313 313 313 313 312 311 310 310 311 311 312 311 307 303 301 300 299 298 298 298 298 298 297 297 297 297 297 297 298 298 298 298 297 297 297 297 297 297 296 296 295 294
319 322 323 325 327 330 333 330 326 326 325 319 314 319 327 327 326 321 315 312 313 314 315 315 314 314 314 314 316 317 316 317 316 315 315 314 314 313 312 311 310 310 309 308 309 309 309 310 310 310 310 310 311 311 311 312 312 312 311 311 310 310 310 311 311 311 308 303 301 300 299 298 298 298 298 298 297 297 297 297 297 297 298 298 298 298 298 297 297 297 297 297 296 295 295 294 294
319 320 321 324 325 325 323 322 323 323 324 323 318 322 327 325 323 318 312 313 314 312 312 313 314 314 313 314 316 316 315 316 316 316 315 314 313 312 312 311 310 309 309 308 308 309 309 309 309 309 309 310 311 311 311 311 311 310 309 310 311 311 311 311 310 309 305 302 301 299 298 298 298 298 298 298 297 297 297 297 297 297 298 298 298 297 297 297 297 297 296 296 295 295 294 293 293
319 318 322 321 318 320 322 320 317 316 321 324 321 323 326 324 323 319 317 320 318 314 312 311 313 313 312 315 317 317 315 314 315 316 315 314 313 312 311 311 310 309 309 308 308 309 309 309 309 309 309 310 311 312 312 311 310 309 309 310 311 311 310 309 308 305 302 301 299 298 298 297 297 297 298 297 297 297 297 297 298 298 298 298 298 297 297 297 296 296 296 295 294 294 293 292 292
321 322 321 317 316 321 325 324 323 322 323 324 322 323 325 326 325 321 319 320 320 319 316 312 311 312 312 316 319 318 316 314 314 314 314 314 313 312 311 311 310 309 309 309 309 309 309 309 309 309 309 310 310 311 312 312 311 310 310 311 311 311 309 307 304 303 301 300 298 297 297 297 297 297 297 297 297 297 298 297 297 298 298 297 297 297 297 296 296 296 295 294 293 293 292 292 291
318 321 318 319 324 325 322 323 327 328 326 326 324 321 322 322 323 323 321 324 329 325 320 318 315 312 314 318 320 319 318 316 314 314 314 314 314 313 311 311 310 309 309 308 308 308 309 309 309 309 309 309 309 311 312 313 311 310 311 311 310 310 307 304 303 302 300 299 298 297 297 296 297 297 297 297 297 297 298 298 297 297 297 297 297 296 296 296 295 295 294 293 292 292 291 291 291
313 316 315 319 324 324 322 323 323 325 326 327 326 323 323 322 322 324 322 327 333 327 324 327 320 314 317 320 319 319 318 317 315 314 314 314 314 313 312 310 310 309 308 308 308 308 308 309 309 309 309 309 309 311 312 312 311 311 311 311 309 308 305 303 302 301 299 298 297 297 296 296 297 297 297 297 297 297 298 298 297 297 296 296 296 296 295 295 295 294 293 292 292 292 291 290 290
316 318 317 318 319 319 322 321 320 325 327 327 327 324 325 325 322 323 321 322 325 325 329 329 318 315 320 320 319 319 318 318 317 315 314 314 313 313 311 310 309 309 308 308 308 308 308 308 308 309 309 309 309 311 312 312 311 311 311 310 308 306 304 302 301 300 298 297 297 296 296 296 296 296 296 296 297 297 297 297 297 297 296 296 296 295 295 294 294 293 293 292 292 291 291 290 290
317 318 318 318 318 319 322 320 320 322 323 326 327 323 324 326 321 320 321 322 319 318 322 321 316 317 320 319 319 319 318 319 318 314 314 313 313 312 311 310 309 309 308 308 308 307 307 307 307 308 309 308 309 311 312 312 311 311 311 309 307 305 303 302 301 299 297 297 296 296 296 296 296 296 296 296 296 296 297 297 296 296 296 295 295 295 294 294 294 293 292 292 291 291 290 290 290
Wind_Speed
5 4 2 2 2 0 1 2 3 4 4 3 2 1 1 2 2 2 1 1 1 4 8 9 9 10 8 9 10 9 7 2 3 3 3 7 11 10 9 10 9 10 10 10 11 10 10 9 8 9 8 8 7 9 9 9 10 10 11 10 9 9 9 10 10 10 10 10 10 10 11 11 11 11 10 9 9 9 10 12 13 14 16 17 18 18 16 14 12 10 9 9 9 8 7 5 5
5 3 2 4 1 1 2 2 2 3 5 3 2 2 1 2 1 4 2 1 5 9 18 19 16 15 14 13 11 10 9 5 3 4 6 11 12 9 8 10 10 11 13 12 11 10 10 9 8 8 8 7 8 9 9 9 10 10 10 10 10 9 9 10 10 9 8 8 8 9 9 10 11 11 11 9 7 8 10 12 13 14 15 17 18 19 17 15 13 11 10 10 10 9 7 5 4
4 3 1 4 1 1 2 3 3 2 5 3 2 3 1 1 4 6 4 7 14 16 16 13 11 9 7 7 6 5 4 5 7 7 8 11 10 9 10 12 12 11 12 14 12 11 10 9 8 7 7 7 8 8 8 9 9 9 9 10 10 9 9 9 9 7 6 7 7 8 9 10 11 12 10 8 7 8 9 11 12 13 15 16 18 19 18 17 14 13 11 11 11 10 8 6 5
3 2 1 3 2 2 3 4 3 4 4 3 2 4 2 4 7 6 4 11 16 12 7 6 6 5 7 7 5 5 4 5 8 8 8 9 9 10 13 15 14 11 12 14 12 11 10 9 8 8 8 7 7 7 7 8 8 8 8 9 9 9 9 9 8 6 5 5 6 8 9 10 11 12 10 9 9 9 9 10 11 13 15 16 18 19 19 18 15 14 13 13 12 12 10 8 6
4 4 0 4 2 1 3 3 2 4 3 4 3 4 5 6 7 5 3 7 12 9 5 6 4 5 8 7 4 4 6 7 8 8 7 8 9 11 15 15 14 11 12 14 12 10 9 9 9 8 9 8 7 7 6 7 8 7 7 8 8 8 8 8 7 5 4 4 6 8 10 11 12 12 10 10 11 11 11 12 13 14 15 16 18 19 19 19 17 15 15 14 14 13 12 10 9
6 5 3 3 3 3 4 4 3 2 4 5 4 5 5 7 7 5 4 5 9 10 8 7 6 8 7 7 6 6 8 7 8 9 8 8 9 12 14 14 14 11 13 15 13 10 9 9 8 8 9 8 7 7 6 6 7 6 7 7 7 7 7 7 6 5 4 5 6 8 10 12 12 12 11 11 11 12 13 14 15 15 16 17 18 19 20 19 18 16 15 15 15 14 13 12 12
6 3 3 6 5 4 4 4 4 2 3 5 4 5 6 9 8 7 5 5 6 6 7 8 11 10 5 5 5 6 8 7 9 10 10 8 9 12 12 13 14 11 14 16 13 11 10 9 9 9 8 7 7 7 6 6 6 6 7 7 6 6 6 6 5 5 5 5 6 9 10 11 11 11 10 10 10 11 13 15 15 16 17 18 18 19 20 20 18 17 15 15 15 14 14 14 14
5 3 3 5 4 5 4 3 3 2 2 4 3 5 9 10 10 7 3 3 3 3 9 13 10 6 3 3 2 6 9 8 10 11 12 10 9 12 12 14 13 12 15 16 14 12 11 10 9 9 8 8 7 7 6 6 6 6 6 7 6 5 6 6 5 5 5 6 7 9 9 10 10 10 10 10 10 10 12 13 14 16 17 18 18 18 19 19 19 17 16 15 15 15 15 15 15
5 3 4 5 3 4 3 3 1 2 2 3 3 4 8 10 10 5 3 3 3 6 12 12 3 1 6 5 4 8 8 9 12 13 13 11 11 11 12 14 13 13 17 17 15 13 12 12 11 9 9 8 8 7 7 6 6 5 5 6 6 5 6 6 5 6 6 6 7 8 8 8 9 9 10 10 10 10 11 12 13 14 16 17 18 18 19 19 18 18 16 15 15 15 15 15 15
4 3 4 4 3 4 3 1 1 1 3 3 3 5 8 11 8 5 6 4 4 6 8 8 2 4 10 7 7 9 9 12 14 14 14 13 12 11 11 13 13 14 17 18 16 14 13 12 12 10 9 9 8 8 8 7 6 5 5 5 5 5 5 5 5 6 6 6 6 6 6 7 7 8 8 9 10 9 10 11 12 13 14 16 16 17 17 18 17 17 16 15 14 14 14 14 14
3 4 5 5 4 3 2 3 2 3 3 4 2 6 9 11 8 6 6 5 4 4 7 5 3 10 10 6 8 9 12 15 15 15 14 13 12 11 11 12 14 14 15 16 16 15 13 13 12 12 11 10 9 9 9 8 7 6 6 6 6 5 5 5 5 6 6 6 6 6 5 6 6 6 7 8 9 9 10 11 11 12 13 14 15 16 16 16 15 15 15 15 14 14 14 13 13
1 2 4 4 3 3 4 4 4 4 4 3 2 6 9 12 10 7 6 7 5 5 6 3 5 12 7 2 8 11 15 16 16 14 14 14 13 12 11 11 13 13 12 13 15 15 14 14 14 13 13 12 11 10 10 9 8 7 7 6 7 6 5 6 6 6 6 6 6 5 4 4 5 5 6 7 9 9 10 10 11 11 11 13 14 15 14 14 14 14 15 15 15 14 14 13 13
3 2 5 3 2 4 4 4 3 1 3 3 4 4 9 12 11 12 11 9 6 5 3 4 9 10 3 2 8 14 17 17 16 14 14 13 13 12 11 12 12 12 12 11 11 12 13 14 14 14 15 14 13 12 11 11 10 9 8 8 7 7 6 6 6 6 7 6 5 5 3 4 4 4 5 6 7 8 8 9 9 10 11 12 13 14 14 14 14 15 15 16 16 16 15 14 13
4 4 5 3 2 3 5 3 2 2 3 6 4 5 9 9 10 16 16 7 3 5 4 7 12 6 3 4 7 17 19 18 18 15 15 13 14 13 12 13 13 13 13 13 11 11 12 11 12 14 15 15 15 14 13 12 11 10 9 8 8 7 7 7 6 6 7 6 5 4 3 3 3 3 4 4 5 6 6 6 8 9 10 11 12 13 13 13 14 15 16 17 17 17 16 15 14
5 4 5 4 2 2 3 2 3 5 5 4 4 6 7 7 10 15 15 7 4 7 7 10 13 4 3 7 6 18 21 19 19 16 16 15 15 15 14 15 14 14 14 15 13 12 12 9 12 15 15 16 17 17 15 14 12 11 10 9 9 8 7 6 7 7 6 5 4 3 2 2 2 2 3 3 4 4 4 4 7 8 9 10 11 12 12 12 13 14 15 16 17 17 17 16 16
5 4 5 4 2 2 3 2 3 4 5 5 7 8 7 6 10 11 8 5 7 11 8 9 14 6 5 10 6 14 21 19 19 17 17 16 16 16 16 16 16 16 15 16 14 14 13 11 16 17 13 15 18 18 16 16 14 12 11 10 9 8 8 7 7 7 6 5 4 3 2 2 1 1 1 1 2 3 2 4 5 6 7 8 9 10 10 11 11 12 12 13 15 15 15 15 15
4 4 5 3 3 4 4 4 4 4 5 5 9 11 6 4 8 8 5 6 10 12 9 8 14 10 8 11 7 14 20 19 19 18 18 17 17 17 17 17 17 18 17 17 16 16 14 13 18 17 14 17 18 17 17 16 15 14 13 12 10 9 9 9 7 7 6 6 4 3 3 2 2 2 1 1 1 1 1 2 4 4 5 6 7 8 8 10 10 10 11 12 13 13 14 14 14
3 3 5 3 4 4 5 7 7 4 4 8 12 13 9 6 8 8 5 6 9 10 9 9 12 11 10 11 9 15 20 19 20 18 19 19 18 18 17 18 18 18 18 18 17 16 15 14 16 16 18 21 18 17 17 16 15 15 15 13 12 11 11 10 9 8 7 6 4 4 4 3 3 3 3 3 2 2 1 0 2 2 4 4 5 6 6 8 10 10 10 11 12 12 12 12 12
4 3 4 3 5 4 5 7 9 4 3 11 13 12 11 10 12 12 6 4 7 6 6 8 10 10 12 13 13 17 19 20 20 19 20 19 19 18 18 18 18 18 18 18 17 16 16 15 15 15 17 19 18 17 17 16 16 16 15 14 14 13 13 11 10 9 8 6 6 6 6 4 4 4 5 4 3 3 3 2 0 1 3 3 4 5 5 6 8 8 8 9 10 10 10 11 11
2 4 3 4 7 3 3 6 11 8 5 13 13 10 10 10 13 12 6 5 5 6 8 9 11 13 14 14 15 18 20 20 20 19 20 19 19 19 18 19 19 19 18 18 18 17 16 15 15 15 15 17 17 17 17 17 17 17 16 15 15 15 14 13 11 10 9 8 8 8 7 6 4 5 6 5 4 4 3 2 1 2 3 3 3 4 4 4 5 6 6 7 8 9 10 10 10
2 4 3 5 5 2 3 5 8 10 8 14 12 7 7 9 12 11 8 5 4 11 15 14 12 14 15 16 17 19 20 20 20 20 20 20 19 19 19 19 19 19 19 19 19 18 18 17 16 15 15 15 16 17 17 18 18 17 17 17 17 16 16 15 14 12 11 10 9 8 8 6 4 5 6 5 4 4 3 1 2 3 3 3 2 2 3 3 4 6 6 6 7 9 10 9 8
3 2 2 5 7 1 2 4 5 9 10 12 10 7 6 9 10 11 12 7 6 12 15 15 13 12 13 15 17 19 21 21 21 22 22 21 21 20 20 20 20 20 20 19 19 19 19 18 17 16 16 16 16 16 16 17 18 17 18 18 18 17 18 17 17 15 13 13 12 10 9 7 5 6 8 7 6 5 2 3 4 4 3 3 2 1 2 3 5 5 5 6 7 9 10 8 7
3 1 0 5 5 2 4 5 5 10 11 11 10 7 7 9 6 9 15 14 11 9 9 12 14 13 13 15 18 20 21 21 22 22 22 22 21 20 20 20 20 20 20 19 19 19 19 19 19 18 18 17 17 17 17 17 17 16 18 18 17 18 19 19 19 17 16 16 15 13 11 10 8 8 9 9 8 5 3 6 5 4 4 3 3 1 1 4 6 4 3 5 6 7 9 7 5
5 2 0 4 4 4 6 5 6 9 9 10 8 6 7 8 5 5 14 20 17 13 10 10 14 15 16 17 20 20 20 21 21 21 21 21 19 19 18 18 18 18 19 19 19 19 20 20 20 19 19 19 19 19 19 18 17 17 18 17 16 17 18 19 19 17 18 17 16 15 13 12 11 10 9 10 10 6 5 7 5 4 4 3 2 0 1 3 6 2 2 4 4 5 8 6 4
5 2 2 3 2 5 7 5 6 7 7 8 7 6 6 7 6 6 14 18 17 17 14 12 14 17 18 19 21 21 21 21 20 20 21 20 19 19 18 17 17 17 17 17 18 20 21 21 20 20 20 20 21 21 21 20 18 18 18 17 16 16 16 18 18 18 18 17 17 16 14 13 12 11 10 11 11 8 7 9 6 5 5 4 2 0 3 1 3 2 1 1 2 4 7 7 6
1 4 4 3 3 5 8 7 7 7 7 7 5 5 5 5 5 10 17 18 17 16 15 14 15 17 19 21 22 22 21 20 19 20 20 20 20 19 18 17 17 16 16 16 17 18 19 18 18 19 20 20 21 22 22 22 20 20 19 19 18 17 17 17 15 17 18 15 16 15 14 14 13 12 11 11 12 10 9 10 8 6 6 6 4 2 3 2 3 2 2 3 3 4 6 7 8
3 4 3 2 3 4 7 9 9 8 7 7 7 5 5 4 2 7 13 14 17 16 15 15 16 18 20 21 22 22 20 19 19 20 21 22 21 19 18 17 17 16 16 15 15 16 16 16 16 17 19 20 22 23 23 23 22 21 21 20 19 16 16 17 13 16 17 13 14 14 13 15 15 14 13 12 12 11 11 10 9 8 8 8 7 6 5 5 5 4 5 4 3 5 7 6 7
3 2 1 2 2 4 7 9 10 8 5 9 9 4 4 1 3 10 11 10 14 16 16 17 17 19 20 22 23 22 20 19 20 22 23 23 21 19 19 17 17 16 16 15 15 15 15 15 16 17 18 19 21 23 23 24 23 22 22 21 20 18 20 20 17 19 18 15 17 17 14 14 15 14 14 13 12 12 12 11 11 10 10 10 10 9 9 8 7 6 6 4 4 7 7 4 4
3 4 1 4 7 4 5 6 9 9 4 7 8 2 4 4 9 14 11 10 13 14 17 18 19 20 21 23 24 23 21 20 22 24 24 23 21 20 19 18 18 18 17 16 16 16 16 16 17 18 19 20 21 23 24 25 23 23 24 22 22 21 21 20 17 18 17 17 20 18 15 14 13 13 13 13 14 14 13 13 12 11 11 12 13 13 13 11 8 7 7 7 7 7 5 3 2
2 3 2 3 7 5 2 1 6 9 3 5 8 2 6 8 14 14 9 10 13 15 19 19 21 22 23 24 24 24 23 23 25 25 24 24 23 22 21 20 20 19 18 18 17 16 16 16 17 18 19 20 21 23 25 25 24 23 24 24 24 22 20 18 18 19 19 21 20 17 15 15 15 14 14 14 14 14 14 14 11 9 12 13 15 17 14 11 9 8 8 8 7 5 4 3 2
1 1 2 2 2 4 4 0 8 8 4 7 8 2 6 8 12 11 11 13 14 17 20 21 23 24 25 25 26 27 26 26 26 24 25 25 24 23 22 22 22 21 20 19 17 17 18 17 17 19 19 20 21 23 25 25 25 24 22 22 22 21 19 20 23 23 23 22 19 17 16 17 17 17 16 16 16 16 16 14 9 8 12 13 14 15 12 11 10 10 10 9 6 6 6 4 3
3 1 3 3 1 5 8 2 10 6 3 8 6 2 7 9 10 7 11 15 15 19 20 21 24 25 27 27 27 29 27 27 26 25 26 27 27 25 24 23 22 22 21 20 19 18 19 18 18 19 19 20 21 23 24 25 25 23 20 20 20 19 18 21 23 23 22 19 16 17 18 18 18 17 17 18 18 19 16 12 9 10 12 13 13 12 11 11 11 12 10 7 5 8 8 6 4
4 1 3 2 1 3 6 2 7 4 3 5 3 2 4 5 5 2 8 14 17 19 21 23 25 27 28 28 29 30 29 28 28 27 27 29 29 27 25 24 23 22 22 21 21 20 19 19 19 19 19 21 21 22 24 25 27 25 24 26 25 23 23 24 25 24 23 19 15 16 18 18 18 17 17 16 15 15 14 12 13 14 13 12 11 11 11 11 11 10 8 7 8 10 10 8 6
4 2 1 4 2 2 3 4 4 2 3 3 3 3 6 6 4 3 6 11 16 20 23 24 25 27 28 29 30 30 31 31 30 29 28 30 31 29 27 25 24 24 23 23 23 21 20 20 20 19 20 20 21 23 25 27 28 26 25 27 27 26 26 25 24 23 22 18 14 15 17 17 16 15 14 12 11 12 13 13 14 14 13 12 11 11 11 11 10 8 7 11 11 10 9 9 8
3 2 1 3 3 3 4 4 3 4 2 3 4 4 11 12 11 14 13 11 17 22 24 24 25 27 28 30 32 32 32 32 30 28 29 31 32 31 29 27 26 25 25 25 24 23 21 21 20 19 20 21 22 25 26 26 24 23 24 26 25 24 25 24 22 21 20 17 14 15 16 15 13 13 13 11 13 15 14 14 14 14 13 12 12 12 12 11 9 8 9 12 12 9 7 7 8
6 6 4 4 4 4 5 5 5 5 2 4 7 7 11 11 12 16 17 15 19 24 25 25 27 28 29 31 33 33 34 33 29 29 30 32 33 33 31 29 28 27 26 26 25 23 22 21 20 20 21 23 24 26 27 26 26 26 26 26 25 24 24 24 23 23 21 17 15 16 17 15 13 13 13 12 15 16 15 15 15 14 13 12 12 12 11 9 7 9 10 11 11 10 9 9 8
6 5 3 3 4 4 5 5 6 2 4 6 8 8 11 12 10 14 15 12 18 23 25 28 31 32 32 34 35 36 36 34 31 31 32 32 34 34 33 31 30 28 27 27 26 24 23 21 21 21 22 23 24 26 26 26 26 27 27 27 27 25 24 23 21 20 19 16 15 16 15 13 12 13 14 14 14 14 14 14 13 13 13 12 11 10 9 9 10 10 11 10 10 9 10 11 10
5 5 2 2 3 5 7 4 5 0 3 6 5 6 11 12 11 14 13 8 15 25 26 29 34 35 36 37 38 39 37 36 35 34 33 34 35 36 35 33 32 31 29 28 27 25 23 22 22 22 22 24 25 27 26 24 24 26 28 28 26 25 24 22 20 17 16 16 15 14 13 13 14 13 15 16 14 14 13 12 12 13 13 12 11 11 11 11 11 10 9 8 10 9 8 10 10
4 3 2 3 3 4 7 5 4 1 4 5 5 4 10 12 10 13 15 14 21 30 30 32 35 34 36 38 40 40 39 39 39 38 36 36 36 37 38 36 34 32 30 29 27 25 24 23 23 23 23 25 26 27 29 27 27 28 26 26 25 25 25 22 19 16 17 17 16 15 14 16 17 15 15 15 15 14 13 12 12 12 12 11 11 12 12 11 11 10 7 5 7 8 8 9 9
2 3 3 3 4 2 4 4 4 1 1 3 5 5 8 10 9 11 20 23 25 31 31 34 36 36 39 39 38 39 40 41 41 41 39 38 37 38 39 39 37 35 33 31 29 27 27 25 24 24 24 26 27 28 30 30 30 28 25 25 25 26 24 20 17 18 19 18 16 16 17 17 17 16 15 15 15 14 13 11 12 13 13 13 11 11 11 11 10 9 7 5 4 5 7 8 9
4 5 6 5 5 6 6 4 4 3 3 3 4 7 7 7 8 9 13 13 18 27 28 31 38 41 41 40 38 39 40 40 41 41 41 39 40 39 40 40 39 38 36 34 31 29 28 26 25 25 24 26 28 29 28 28 28 28 27 27 27 26 24 20 20 22 22 19 18 19 19 18 18 17 16 16 15 14 13 12 14 15 15 14 12 10 10 10 9 8 8 6 3 2 3 6 9
4 5 9 10 8 7 5 3 5 4 5 4 3 4 6 4 6 8 7 4 9 16 17 25 36 38 37 38 39 41 39 39 39 39 39 39 40 40 40 41 41 40 39 35 32 30 28 26 25 26 25 27 28 28 27 26 27 27 27 29 29 27 25 23 24 24 23 20 20 21 21 20 19 18 17 16 15 14 15 16 16 16 15 14 12 10 9 9 9 9 7 5 4 2 2 4 6
2 5 9 11 8 5 4 2 2 1 4 3 3 1 6 7 6 8 7 6 10 11 10 20 31 31 31 34 36 37 36 37 37 37 38 38 39 41 42 42 42 42 40 36 33 31 28 26 26 27 26 26 27 27 26 26 27 27 28 29 29 27 25 25 26 24 23 21 22 23 22 21 20 19 18 18 17 17 18 18 17 15 14 13 12 10 9 9 8 7 7 5 4 3 2 2 4
3 5 5 7 7 6 5 5 3 3 3 4 2 3 4 8 7 6 6 7 10 12 12 18 26 31 32 34 35 35 34 34 35 36 37 37 38 40 41 41 41 42 40 37 34 32 29 27 27 27 26 26 27 29 28 28 29 30 30 30 29 27 25 25 25 25 24 23 24 25 22 21 21 20 20 20 21 20 19 18 16 15 13 13 12 10 9 9 7 6 6 5 4 3 3 3 4
5 3 6 6 6 5 4 5 3 1 3 5 2 3 3 7 6 3 2 4 9 13 15 15 21 28 30 29 28 28 28 29 30 33 35 35 36 37 39 40 40 40 40 37 34 32 29 27 27 28 27 26 28 30 31 31 30 29 29 27 26 26 26 25 25 25 24 24 26 25 23 23 23 23 23 23 22 21 19 17 16 14 13 12 12 10 9 8 7 5 5 5 4 4 4 3 3
4 6 7 6 5 5 5 4 3 3 2 7 6 5 3 7 5 1 1 3 8 12 12 11 17 23 21 19 18 17 18 19 22 26 30 32 33 34 37 39 39 39 39 36 34 32 29 27 28 29 28 28 28 29 31 32 29 27 27 26 26 28 28 27 26 26 25 25 26 25 24 26 27 27 26 24 23 21 19 17 16 14 13 12 11 10 8 7 6 5 5 4 3 3 2 1 1
9 7 6 6 6 5 4 3 4 2 4 8 8 9 6 5 4 4 3 4 7 8 8 8 13 16 13 12 12 11 11 12 15 19 24 28 31 33 36 37 38 39 38 36 34 32 30 29 30 30 29 30 30 30 32 32 29 29 29 27 29 31 30 29 29 28 27 28 28 27 29 30 29 28 27 25 23 21 19 17 16 14 13 12 11 9 7 6 6 5 4 4 3 3 3 3 4
8 4 5 4 4 4 4 4 4 1 6 5 4 5 7 7 6 4 5 6 6 7 7 7 9 12 12 10 10 11 12 13 15 17 21 25 29 32 35 36 38 39 38 37 35 34 32 31 32 32 31 32 30 30 31 30 29 31 31 29 31 32 31 31 29 29 31 31 31 32 33 32 30 29 27 26 24 21 19 18 16 15 13 12 10 9 8 7 6 5 4 4 3 3 3 3 4
4 4 6 4 2 3 3 3 1 3 7 3 1 2 3 8 8 7 11 12 11 10 10 12 13 17 18 15 15 18 20 21 20 19 21 24 27 30 33 35 38 39 39 38 36 35 34 33 34 34 33 33 30 29 30 30 31 33 33 32 33 32 31 30 29 30 32 33 34 36 36 34 32 31 28 26 23 21 19 18 17 15 13 12 11 9 8 7 6 5 4 3 2 2 2 2 3
5 5 6 5 2 1 3 3 2 4 5 3 2 2 3 6 5 10 16 18 18 16 16 20 21 22 24 24 26 28 27 26 23 21 22 24 26 28 31 34 37 40 40 39 38 36 35 35 36 35 35 33 30 30 31 33 33 34 33 33 32 30 29 29 29 31 33 35 36 36 34 32 31 29 27 25 23 22 20 18 17 15 14 12 11 9 8 7 6 4 3 2 1 0 1 2 3
5 3 6 5 5 5 4 4 3 4 3 3 2 2 4 4 3 8 12 15 19 20 22 24 26 27 26 27 29 29 26 23 22 22 22 24 25 27 30 33 36 39 40 40 39 38 37 37 37 37 36 34 32 31 33 34 35 35 34 32 30 28 28 28 29 31 34 36 36 35 32 30 28 26 25 24 23 22 21 20 18 16 15 13 11 10 8 7 5 4 3 1 1 2 2 3 4
2 2 4 3 6 5 2 3 5 2 2 4 3 4 5 4 6 9 10 12 15 17 19 22 26 25 21 24 27 26 23 20 20 22 23 24 25 27 29 32 35 38 40 41 40 39 38 38 38 38 36 34 34 33 33 34 35 35 34 32 29 28 28 29 30 33 36 36 35 33 30 29 27 26 25 24 23 23 21 20 19 17 15 13 12 10 8 7 5 4 3 3 4 4 4 4 5
2 3 4 4 4 6 2 2 1 3 2 4 3 5 5 3 8 10 8 12 12 11 14 19 23 20 18 24 29 28 25 20 18 20 22 23 25 27 29 31 34 37 40 41 40 39 39 38 39 38 37 35 35 35 34 34 34 33 32 31 30 30 29 30 32 35 37 36 34 32 30 29 28 26 25 24 24 23 22 20 19 18 16 14 13 11 9 8 7 5 5 5 5 6 6 6 6
5 4 6 2 2 3 2 1 3 3 3 5 3 6 5 2 6 5 1 8 12 11 12 16 19 19 20 26 27 27 25 21 18 18 20 23 25 26 28 29 32 35 38 39 39 38 38 39 39 38 37 37 37 36 35 34 34 33 32 31 31 31 31 31 33 36 37 36 35 33 32 30 29 27 26 26 25 24 23 22 20 18 17 16 14 12 10 9 8 8 7 7 7 7 8 8 8
4 4 5 4 2 1 2 2 1 1 3 5 3 5 5 5 6 3 2 8 10 11 10 9 12 17 20 22 22 23 23 20 18 17 19 22 24 26 27 28 30 33 36 38 38 38 39 39 39 38 37 36 36 36 36 36 35 33 32 31 32 32 33 34 36 38 38 37 35 34 33 31 29 28 28 27 26 25 24 23 21 20 18 17 15 13 12 11 10 10 9 8 9 9 10 9 8
4 3 3 2 2 4 3 3 3 3 2 4 4 3 4 7 7 7 10 11 10 9 6 5 11 16 17 17 18 20 20 19 19 17 17 20 23 25 26 25 27 30 34 36 37 38 39 39 40 39 37 36 36 37 37 37 36 34 32 32 33 35 36 37 38 39 39 37 35 34 33 32 30 30 29 28 27 25 24 23 22 21 20 18 16 14 14 13 12 11 10 10 10 11 11 10 8
4 4 5 3 1 2 1 1 2 4 3 2 3 6 7 5 5 10 13 12 10 9 6 7 12 13 12 14 17 19 18 18 19 17 16 19 22 24 24 24 25 28 32 35 36 38 38 39 40 40 38 38 38 39 38 37 35 34 34 35 36 38 38 39 40 40 39 37 35 34 33 32 32 31 30 29 27 26 24 23 22 21 20 18 17 16 15 15 14 12 12 12 12 13 12 11 9
7 7 8 9 7 4 2 3 2 2 2 4 3 8 10 5 5 8 9 9 9 9 9 8 10 10 10 13 17 19 18 18 18 16 14 17 20 23 23 23 25 28 32 35 36 37 38 39 40 40 40 39 39 39 39 37 35 35 35 36 37 39 40 41 41 41 40 38 36 35 34 34 33 32 31 29 28 26 25 24 23 22 21 19 18 17 17 16 15 14 13 14 14 14 13 11 9
Wind_Direction
241 245 260 174 166 258 282 117 87 21 65 90 14 81 190 201 202 169 63 341 51 29 72 103 112 109 104 102 112 93 66 115 162 137 164 164 150 151 147 150 150 145 160 158 151 146 136 138 139 133 130 124 111 99 96 93 91 90 88 90 96 99 98 102 104 99 93 86 75 65 59 59 68 78 79 76 69 59 51 44 40 37 39 42 45 47 50 55 63 69 72 71 70 70 73 72 71
226 236 242 177 186 303 213 93 83 357 54 79 325 155 196 333 122 167 187 150 140 111 93 96 96 93 93 93 93 75 48 43 116 126 134 146 153 158 152 155 155 151 159 160 156 149 148 155 151 139 135 131 118 110 106 101 97 93 91 90 95 98 100 107 110 107 97 83 67 54 47 52 72 83 80 77 68 54 45 38 36 36 39 44 47 49 51 55 62 70 75 76 75 73 73 74 77
211 224 204 193 240 24 157 66 85 84 72 111 258 245 266 47 177 197 190 139 133 120 103 97 85 77 90 86 58 64 71 79 112 121 131 147 155 157 156 152 148 148 156 161 161 156 158 161 155 143 136 133 125 118 112 107 101 96 96 93 96 97 97 104 110 110 93 76 58 45 45 57 80 91 87 78 62 48 40 35 34 35 39 46 49 51 52 55 62 70 75 77 76 75 74 74 78
173 162 139 201 204 69 80 49 113 116 107 162 211 259 254 176 192 211 170 137 142 135 116 101 73 62 89 95 78 82 117 131 129 134 146 154 154 157 156 150 145 144 155 163 164 159 157 161 160 150 143 141 135 125 117 111 107 106 104 101 102 100 95 98 106 108 88 66 50 48 58 72 86 94 90 74 59 50 44 39 37 39 43 47 50 52 53 56 62 70 76 77 77 76 75 76 77
144 134 214 230 210 84 87 72 105 100 161 177 148 249 248 194 200 210 156 143 171 178 151 117 96 99 88 88 102 109 137 148 145 149 165 161 149 153 154 149 143 142 158 165 165 162 157 163 163 156 151 148 144 135 128 118 113 109 105 105 102 100 97 96 101 101 80 54 51 62 73 82 90 93 87 71 61 58 53 48 45 44 45 47 49 51 53 55 60 68 75 76 76 76 76 76 75
140 121 63 119 117 94 99 86 97 91 202 168 144 234 231 201 201 173 119 113 166 175 156 133 133 128 90 75 94 130 145 150 161 170 183 171 149 152 154 146 139 141 160 166 167 165 161 165 168 163 156 153 152 144 142 128 116 111 105 101 98 101 100 96 96 91 68 54 64 77 83 86 92 92 85 75 70 64 56 51 49 47 44 45 47 49 50 53 56 63 71 74 75 75 76 76 73
145 142 70 97 74 51 94 107 136 145 187 172 174 197 200 203 191 157 121 99 134 158 152 141 135 119 92 93 98 143 152 157 169 177 185 177 157 155 159 148 141 146 161 168 168 168 169 168 168 169 163 161 161 152 153 142 127 125 121 114 109 109 105 100 94 83 65 67 82 89 89 88 90 88 83 76 70 62 54 52 51 47 44 43 45 46 47 49 53 58 65 71 72 73 74 74 72
145 154 81 95 39 30 90 98 156 174 155 216 231 183 188 189 175 161 133 122 132 150 143 141 134 104 134 163 146 159 153 161 168 174 181 179 165 157 164 156 145 154 165 169 171 175 179 176 170 170 170 172 172 167 167 156 146 141 136 131 126 120 114 111 101 87 76 78 90 92 91 90 87 81 77 70 63 57 52 51 50 46 43 42 42 43 43 45 49 54 60 66 69 70 69 70 69
130 131 87 88 66 49 64 41 136 211 266 246 237 197 187 174 169 157 114 107 119 141 152 155 145 86 172 175 166 168 163 172 171 173 179 178 171 162 165 159 151 160 167 170 175 181 186 187 181 173 174 180 182 179 177 171 163 155 149 142 135 132 124 118 104 92 85 85 89 88 88 88 82 73 69 65 59 56 50 48 47 44 42 41 41 41 40 41 45 51 56 61 65 68 68 69 69
100 92 105 85 76 68 60 25 254 236 263 255 230 207 181 173 170 147 133 121 132 147 168 184 216 148 162 166 163 170 167 172 174 175 180 179 175 172 168 160 161 166 169 174 178 183 188 194 192 184 183 185 188 186 186 185 176 168 166 158 148 146 135 123 109 96 91 88 87 84 83 80 72 65 60 60 59 53 48 47 47 45 44 41 40 40 39 40 45 50 55 59 63 66 69 70 70
75 61 99 80 76 102 153 188 253 253 271 311 262 204 186 183 162 133 134 124 143 139 150 177 177 146 147 164 172 175 169 170 176 176 178 178 179 182 180 169 169 173 178 180 181 185 187 195 198 193 193 194 194 193 194 193 187 184 182 177 166 161 152 137 126 115 110 102 97 90 83 74 62 56 51 51 51 47 45 45 47 46 45 42 41 41 41 45 51 55 58 61 63 65 68 69 69
114 31 80 85 118 158 181 164 202 258 303 324 202 201 192 186 159 145 144 132 142 130 141 177 175 150 130 178 184 179 171 173 177 179 180 177 180 186 190 183 177 182 189 189 187 190 192 197 200 196 197 201 201 200 200 198 195 196 195 189 178 172 165 151 143 133 127 119 110 102 91 78 60 52 49 49 48 47 47 46 46 46 46 44 44 44 46 53 60 66 67 67 67 67 67 67 67
151 143 87 90 142 140 146 145 196 290 318 243 194 173 169 180 171 159 149 133 143 139 158 199 174 158 132 198 194 184 176 179 180 182 186 179 181 187 193 194 191 192 196 199 195 198 203 203 204 202 201 204 206 206 206 206 204 204 201 196 188 180 174 162 155 147 141 134 123 118 106 90 70 57 55 55 53 54 54 50 48 47 47 46 48 50 52 60 67 72 73 73 72 71 70 68 67
139 147 96 101 106 107 135 135 204 154 230 241 200 164 162 185 179 159 146 128 164 157 157 174 168 160 172 191 205 190 179 183 184 184 193 188 186 190 196 200 204 203 200 206 206 204 211 213 212 211 207 206 209 207 208 209 209 208 205 204 200 192 183 171 164 160 153 147 141 135 124 112 94 73 73 74 67 66 69 56 51 52 48 48 52 55 58 65 70 72 72 72 72 71 71 68 65
129 122 85 105 88 78 156 166 161 150 212 224 175 175 161 176 173 161 152 138 177 163 149 166 174 180 210 198 213 194 182 183 186 187 195 196 193 193 200 205 210 211 208 213 215 210 216 209 205 220 216 207 208 208 209 207 206 208 209 213 206 197 193 182 175 171 162 161 161 150 144 139 126 106 96 91 84 82 81 57 55 59 53 52 57 59 64 71 71 69 69 69 69 69 68 66 62
117 107 74 91 116 152 177 167 122 131 227 205 167 164 136 158 166 167 173 157 159 159 160 179 188 218 237 211 217 192 182 182 188 189 196 200 200 198 202 207 211 216 218 221 222 218 220 193 195 221 222 210 212 210 211 208 205 203 206 214 207 205 205 199 189 180 177 181 180 177 180 180 175 155 131 106 95 92 81 57 59 61 55 56 62 65 70 76 72 67 67 67 68 68 65 62 58
98 84 66 86 152 183 186 173 164 168 223 209 176 169 138 156 170 173 192 175 163 163 179 190 195 223 233 211 208 191 185 185 190 192 197 201 203 204 206 209 213 218 220 223 224 222 222 201 201 216 205 210 221 215 214 214 211 206 206 210 207 214 208 200 200 193 191 192 195 207 210 210 221 228 206 195 161 108 88 57 55 51 52 61 67 70 77 80 70 65 68 69 70 69 65 59 54
77 98 90 124 172 191 182 179 190 166 183 193 185 180 159 160 176 171 164 165 164 166 189 192 196 216 207 198 198 192 190 189 193 196 200 203 205 207 210 213 215 219 221 223 225 223 223 215 215 215 203 214 226 221 220 219 219 216 214 212 206 210 205 203 211 207 201 199 210 222 225 231 238 244 234 225 219 196 192 335 32 45 51 63 68 67 79 83 70 65 72 73 73 69 63 57 52
76 101 95 172 201 202 192 193 197 182 181 183 182 186 173 170 174 168 171 180 165 163 187 188 195 203 194 197 201 197 195 195 198 202 205 209 212 214 216 219 220 222 224 225 226 225 225 222 222 221 214 220 226 225 226 224 224 223 221 219 213 212 211 214 216 211 209 212 220 230 232 230 239 246 239 231 219 210 215 244 298 103 82 67 64 64 73 81 69 64 73 73 70 65 57 53 53
73 91 89 225 215 215 234 212 203 213 204 173 176 191 184 180 176 175 187 180 184 204 197 191 199 203 200 201 203 201 200 199 203 206 210 215 218 221 224 225 228 229 230 231 231 230 229 228 226 226 223 223 225 226 227 227 227 226 226 224 221 219 219 219 217 214 218 222 225 236 235 220 234 245 227 223 223 222 233 238 191 141 116 90 66 68 74 79 65 57 68 71 63 53 45 48 55
64 99 143 213 185 172 232 204 209 223 206 176 172 177 189 187 181 187 177 150 244 236 216 214 217 213 208 205 205 206 205 204 206 209 212 216 220 224 227 229 231 232 233 234 234 235 234 233 231 229 229 225 225 226 225 226 229 228 226 227 224 222 222 222 220 220 220 220 216 214 212 203 221 226 213 225 231 220 234 217 164 160 142 121 99 79 75 71 47 43 53 54 51 42 37 45 54
70 51 211 173 151 135 197 174 195 201 185 174 167 163 189 184 187 201 185 174 231 234 227 229 232 230 225 217 211 209 210 210 211 213 216 220 224 228 230 231 232 233 234 235 235 237 237 237 236 232 231 228 226 228 225 224 228 226 224 227 227 224 223 223 223 222 220 218 210 203 207 219 229 223 226 227 212 206 207 180 170 178 167 146 157 143 65 48 33 41 49 35 36 35 33 43 47
96 11 348 157 176 223 171 161 166 175 172 173 174 183 187 176 198 219 206 215 228 235 240 233 235 235 232 227 218 214 215 216 218 221 224 226 229 231 232 232 233 234 233 234 234 235 238 238 238 235 232 230 227 229 229 226 226 223 222 225 226 225 223 224 226 224 222 221 220 221 228 236 232 225 227 209 197 210 194 176 174 184 187 173 178 184 34 31 19 20 60 41 32 25 23 34 40
107 120 77 157 213 230 177 165 165 176 187 188 187 196 194 189 206 235 226 233 239 245 247 234 233 230 228 226 220 219 219 222 225 227 230 232 234 233 233 231 230 230 229 229 230 233 237 237 237 236 234 232 229 231 232 230 224 220 224 224 225 228 226 225 226 225 225 225 226 230 231 229 227 222 218 210 215 234 200 185 192 208 216 206 201 214 130 33 354 316 108 55 23 1 356 4 18
77 140 178 142 177 201 185 186 187 194 204 198 199 205 208 212 223 256 245 243 245 245 244 237 231 227 226 224 220 219 219 223 226 228 231 231 231 230 229 228 225 226 226 226 227 230 233 235 235 235 234 232 231 233 233 233 227 222 225 223 222 227 229 228 223 224 227 225 226 227 227 226 223 220 218 220 230 235 209 204 218 231 231 215 211 191 162 183 309 267 136 39 354 333 329 335 342
76 135 151 146 153 181 189 203 204 211 216 200 207 225 233 231 245 266 253 248 249 246 241 237 232 228 225 222 220 219 220 224 226 230 233 230 230 229 227 227 225 225 225 224 224 226 230 232 231 230 231 231 230 233 234 234 229 225 225 222 222 222 228 234 225 227 230 224 229 228 224 224 219 219 222 225 230 228 216 213 223 231 225 219 223 209 190 225 261 243 251 285 303 309 318 330 340
126 118 129 161 183 205 206 212 213 214 223 216 210 232 251 232 217 256 251 245 246 245 241 236 231 228 224 220 218 218 222 226 230 234 233 232 232 232 231 230 228 226 225 224 223 225 228 228 227 225 226 227 229 232 234 234 230 226 226 223 225 220 222 231 219 226 231 216 221 226 220 219 217 218 221 224 226 221 216 216 220 222 219 226 233 221 224 247 233 221 238 256 277 294 310 326 347
107 92 222 275 310 257 223 216 217 206 218 223 210 236 272 195 197 243 248 243 242 240 237 234 227 224 221 219 217 217 222 226 231 234 234 236 236 235 236 233 231 228 227 227 226 228 230 228 228 225 224 225 227 230 232 235 232 225 225 223 219 212 214 224 218 226 235 210 208 223 227 224 220 219 218 217 220 221 223 230 236 240 236 232 234 232 232 232 215 210 217 224 266 286 299 318 349
62 57 300 306 353 329 230 221 214 195 211 217 191 272 285 216 226 242 247 236 232 230 228 229 225 221 218 218 218 220 225 229 232 235 236 236 237 237 236 235 231 229 228 228 228 230 233 233 232 230 227 225 225 229 230 233 233 225 223 220 219 217 216 224 223 225 233 219 216 225 228 230 230 229 229 224 226 230 233 244 247 248 251 239 229 226 222 212 199 199 206 221 261 277 278 287 317
27 47 58 330 359 346 252 233 196 185 207 186 162 257 274 248 240 236 240 230 220 219 222 225 224 221 219 219 223 228 232 234 237 239 238 234 232 233 233 233 231 228 228 229 231 234 237 237 236 235 230 228 226 226 227 230 231 227 222 218 220 220 216 220 221 216 223 227 227 224 218 222 227 229 233 233 233 231 229 231 231 239 254 246 223 213 205 193 183 188 204 226 243 243 241 245 253
3 358 35 21 5 280 286 259 162 165 214 181 152 238 264 269 261 241 236 231 221 223 225 225 226 225 224 226 230 236 239 239 242 241 237 234 230 229 229 230 230 229 230 232 235 237 242 241 238 238 233 230 227 224 225 224 226 226 221 222 224 221 217 221 225 223 225 228 221 214 214 217 222 225 226 228 227 227 224 219 214 229 238 223 203 193 183 178 185 202 219 234 224 198 207 200 204
26 356 311 347 157 266 307 241 168 158 203 180 152 243 263 271 277 261 229 222 221 229 232 230 231 230 230 233 236 241 244 243 244 241 236 232 230 229 228 229 230 230 230 233 236 237 243 243 238 239 234 228 226 223 221 218 223 222 208 209 218 217 212 213 223 229 229 227 216 212 219 219 221 223 222 223 225 226 221 208 200 211 208 191 184 185 190 198 210 224 227 225 197 181 188 189 207
0 65 250 283 188 278 321 262 202 187 139 179 192 237 269 282 284 258 206 214 220 229 237 236 235 236 235 237 241 244 246 244 244 242 235 230 229 229 228 229 230 230 231 233 235 237 241 243 240 237 234 230 223 217 214 211 219 219 205 203 208 208 207 211 224 234 233 231 220 215 220 221 223 224 222 223 226 223 211 201 201 206 206 198 199 206 215 219 221 230 215 182 184 193 205 212 212
311 9 240 242 215 231 299 310 249 187 125 205 223 228 250 266 277 263 217 216 219 227 240 242 240 240 239 240 242 245 246 245 246 243 237 231 229 228 228 229 229 228 230 231 234 236 237 240 240 234 231 228 218 212 211 212 217 222 214 210 213 213 214 220 230 234 236 234 220 214 221 227 227 225 225 220 213 208 201 206 210 210 213 213 217 221 222 222 216 219 199 181 195 213 217 208 196
202 195 197 247 239 222 250 290 235 157 112 227 208 244 257 263 271 266 255 231 224 235 244 247 246 244 243 242 243 245 246 247 248 246 240 235 231 229 228 228 228 227 227 230 232 233 233 234 235 232 227 222 216 211 211 212 214 215 212 213 221 222 219 222 226 228 234 233 222 217 222 227 222 218 222 209 195 197 200 209 215 217 221 222 225 224 220 220 211 205 201 195 199 202 195 187 189
160 178 158 175 208 246 240 254 248 179 157 235 219 235 253 260 267 264 259 238 231 244 249 249 250 248 246 245 245 246 246 249 251 247 241 238 234 231 229 228 229 228 227 229 231 232 231 231 232 230 224 220 217 214 212 211 207 208 212 216 218 219 223 229 231 231 231 229 222 215 215 219 216 211 208 194 190 199 207 213 217 221 225 220 218 219 217 210 193 185 187 188 186 178 174 182 195
114 129 134 169 193 267 260 257 289 194 165 248 233 233 256 259 262 266 263 239 230 244 249 250 249 248 247 246 248 248 248 252 252 247 243 240 236 232 230 229 229 229 228 229 231 231 231 230 232 229 225 221 216 215 217 218 214 213 213 214 215 220 228 233 235 232 224 217 213 210 211 209 209 205 193 189 195 203 209 212 213 215 214 210 207 206 196 178 167 166 167 167 175 177 175 178 187
92 118 164 254 205 253 258 250 307 1 169 265 262 249 262 260 260 266 260 223 229 240 242 248 251 250 249 247 249 250 251 252 250 248 244 239 236 232 231 230 229 230 229 229 230 231 231 230 230 228 226 223 213 209 215 220 216 213 214 218 222 222 222 229 236 229 211 205 204 205 204 195 200 203 190 190 197 199 202 202 202 204 203 200 192 179 167 159 154 155 158 162 171 180 179 176 180
89 112 147 264 246 269 277 280 321 24 175 267 298 277 266 263 261 264 251 231 241 246 244 250 254 253 252 250 250 251 251 250 248 248 246 242 238 233 231 230 230 230 229 230 230 229 230 228 228 226 222 221 215 207 208 212 213 216 224 227 221 218 223 232 234 216 199 200 203 201 196 190 197 202 192 191 193 193 197 201 201 198 190 182 172 162 156 155 154 152 155 163 167 176 179 176 179
162 154 154 241 251 261 277 289 322 0 182 273 309 298 276 269 264 260 254 244 248 255 253 256 257 256 256 256 256 255 252 251 250 248 246 243 240 235 232 231 230 230 229 229 229 229 228 225 225 225 220 215 214 212 210 212 217 222 227 226 221 224 230 230 217 200 197 202 202 195 191 189 193 197 193 192 194 196 199 200 195 181 167 159 160 162 157 157 157 148 147 156 156 175 180 174 179
239 192 183 221 233 217 232 286 328 342 346 1 345 307 282 270 263 258 262 254 253 258 256 257 258 257 258 259 258 257 255 254 252 250 247 244 242 240 236 232 230 230 230 231 230 229 229 226 222 223 222 216 214 216 214 212 216 221 223 221 220 222 225 220 204 195 198 201 196 191 190 189 190 193 196 197 198 200 195 186 177 167 157 152 158 165 160 154 151 143 143 150 144 178 204 186 185
273 224 200 211 220 224 238 337 10 1 330 346 17 304 282 291 272 259 279 301 266 258 252 253 256 258 257 257 258 257 256 255 254 252 250 247 246 243 238 233 231 231 232 231 230 229 228 226 222 220 220 218 218 219 214 210 213 218 219 216 214 218 221 212 198 198 202 199 192 192 193 192 192 196 201 200 197 189 178 171 167 162 156 155 157 159 157 152 149 147 142 141 148 156 198 204 196
271 247 207 207 204 201 207 147 62 299 262 292 60 205 273 296 269 250 262 272 268 266 254 253 258 260 258 258 262 261 258 256 253 251 249 247 244 241 239 236 233 233 233 229 228 228 225 223 221 219 219 218 217 217 213 209 210 214 217 218 222 229 224 206 197 202 205 199 193 195 197 198 197 199 199 191 180 173 168 165 163 161 160 156 154 157 159 152 149 147 138 143 158 148 149 216 211
237 253 179 176 176 185 193 158 174 237 261 311 40 130 266 283 262 250 252 260 275 275 265 262 261 261 262 263 265 266 265 261 256 252 249 245 242 241 240 240 236 233 231 228 226 226 225 222 219 217 219 217 211 212 214 212 214 218 223 227 230 230 222 209 204 204 205 203 198 195 199 202 197 190 185 175 167 166 166 164 163 164 163 156 154 160 159 151 149 144 140 150 157 143 150 195 207
248 222 123 137 151 156 141 123 160 341 8 300 285 128 255 271 261 290 312 257 268 267 261 262 261 262 266 268 269 271 270 266 261 256 253 249 246 244 241 239 236 232 230 228 226 226 224 220 215 214 217 216 209 210 213 216 219 222 224 225 222 217 214 215 214 210 209 206 197 195 199 197 186 176 172 167 165 166 166 166 165 164 162 158 157 162 159 151 148 144 140 144 141 138 154 175 198
201 139 94 79 79 81 82 98 108 52 358 255 222 162 237 270 244 232 15 236 247 259 260 262 267 269 272 273 273 277 275 270 265 261 256 253 249 245 240 236 233 231 229 227 224 224 222 217 213 213 214 213 211 209 212 218 219 217 219 219 214 213 214 217 219 217 212 201 193 194 193 184 175 170 168 167 167 167 167 167 165 162 163 162 158 159 158 149 140 134 129 126 116 104 97 56 330
140 116 66 50 36 38 48 53 76 64 275 254 218 183 198 272 259 199 206 217 222 244 263 272 275 271 268 271 277 283 284 280 274 266 258 252 246 242 237 234 231 229 227 225 222 222 220 216 214 214 213 212 212 212 215 220 216 212 218 219 215 217 220 221 221 217 207 194 189 189 184 177 172 170 169 168 169 169 168 167 165 165 166 163 159 157 151 139 127 119 109 97 78 50 20 356 334
123 93 80 70 351 8 20 359 48 166 251 264 247 179 176 236 260 232 249 264 238 228 243 261 275 274 268 270 280 291 296 292 282 270 258 248 242 238 234 231 229 227 225 223 221 221 219 216 214 214 214 214 216 217 217 216 210 209 216 218 219 224 228 227 222 213 200 190 187 185 180 175 173 172 172 171 171 170 170 170 168 169 168 163 160 154 142 129 119 111 98 79 57 33 9 344 325
107 99 111 102 330 355 344 305 85 232 250 260 255 133 186 237 255 263 264 268 253 232 231 241 256 269 272 272 278 288 292 289 282 270 259 250 244 239 234 229 226 224 224 223 221 220 218 216 215 215 216 217 219 217 213 210 209 211 216 220 225 229 229 225 218 209 198 190 186 184 181 179 176 175 175 175 173 173 173 174 171 170 169 164 158 149 138 130 122 112 98 80 57 27 356 323 309
160 147 141 140 147 180 271 267 269 265 265 266 206 178 253 266 265 249 245 251 253 250 251 254 258 264 270 275 278 283 285 285 280 268 258 253 248 243 236 231 226 224 223 222 221 220 219 217 216 217 217 218 219 216 211 211 213 216 221 226 229 227 222 217 212 206 198 190 187 186 185 182 180 179 177 177 177 176 175 175 173 171 170 165 157 149 142 137 132 125 117 98 61 294 281 287 290
186 153 139 158 161 169 215 219 226 254 280 292 248 189 203 212 257 251 247 263 266 260 258 261 265 267 271 277 278 279 279 279 277 269 261 255 250 245 239 233 228 224 222 221 221 221 220 220 219 218 218 217 217 215 213 213 216 219 222 226 225 221 216 213 210 205 198 191 188 188 187 185 184 183 181 180 181 180 178 176 175 174 172 166 159 155 152 150 146 144 151 177 226 230 246 268 274
227 110 121 187 184 166 195 203 182 187 303 294 232 222 218 210 273 274 266 275 271 263 263 262 263 266 271 275 276 277 276 272 270 267 264 257 250 244 240 235 230 225 222 221 221 221 222 223 221 220 220 218 216 216 216 216 218 221 221 221 219 216 213 211 206 202 197 192 189 190 190 188 187 186 185 185 184 183 183 180 178 176 173 169 165 163 163 164 165 172 190 214 228 231 241 253 259
159 137 176 208 172 145 152 272 54 80 272 267 202 239 285 310 282 273 259 264 269 271 269 262 261 266 271 273 276 278 277 273 269 267 264 258 252 245 240 236 232 227 223 222 223 224 225 226 224 221 219 217 216 216 218 218 219 222 221 218 217 214 210 206 202 198 196 193 191 192 192 191 190 190 189 189 188 186 185 183 182 180 176 174 174 173 174 179 185 196 209 220 229 234 241 245 252
128 185 201 159 77 97 118 253 353 41 256 272 226 236 271 278 270 297 279 250 262 266 261 262 269 272 270 271 277 281 280 278 271 265 261 257 253 248 243 237 234 230 227 226 225 226 227 227 226 223 220 218 216 215 217 219 220 222 222 218 215 211 205 202 200 198 196 195 193 193 193 193 192 192 193 192 191 189 186 185 185 183 181 180 182 182 185 191 198 208 216 223 230 236 241 243 248
125 175 173 123 125 200 121 160 228 194 254 282 278 248 240 207 224 276 226 223 241 251 252 262 269 265 265 271 281 285 285 283 274 265 261 259 256 252 246 239 235 231 228 227 227 227 227 227 227 226 224 221 218 216 216 219 222 223 223 218 213 208 202 199 199 199 199 197 196 195 195 196 195 195 196 195 194 193 191 189 187 187 187 187 188 191 195 201 208 215 221 226 233 239 240 242 245
56 95 133 110 142 172 160 161 170 169 232 278 302 293 243 215 201 200 214 217 215 222 230 240 248 253 261 274 286 289 290 290 284 273 265 263 260 256 250 242 237 232 229 227 228 228 228 228 227 226 224 221 219 218 217 220 222 222 221 217 211 206 200 198 200 200 201 199 198 197 196 198 199 198 198 197 197 196 195 193 192 192 193 193 195 198 202 208 213 218 223 229 237 240 240 241 243
146 152 171 182 119 106 164 196 135 140 175 226 289 286 260 229 192 193 208 217 211 204 199 222 244 251 263 282 292 294 296 296 291 282 271 265 261 257 251 243 237 232 230 229 228 230 230 229 228 227 225 222 219 218 219 221 222 221 219 215 209 204 200 199 201 202 203 201 200 200 199 200 201 201 200 199 198 198 198 197 197 197 197 200 203 205 210 215 218 222 225 231 238 240 241 242 244
179 186 191 186 170 138 165 238 214 142 180 184 205 274 268 230 186 198 205 209 209 210 208 218 242 252 268 290 296 296 300 300 295 289 278 268 261 257 251 243 237 231 229 229 229 230 230 229 228 227 227 225 221 218 219 221 222 221 220 215 209 205 201 200 202 203 204 203 202 202 202 203 203 203 202 201 201 200 200 201 201 201 202 204 208 213 217 220 223 226 229 234 237 239 242 244 247